| time (UTC) | temp C | wind direction | speed KPH | gust KPH | rain 1hr cm | rain 24hr cm | rain mn cm | humidity % | barometer mb |
| 20260906174542 | 22 | 62 | 0.0 | 0.0 | 0.00 | 0.00 | 0.00 | 95 | 1017.2 |
| 20260906173042 | 22 | 141 | 0.0 | 1.6 | 0.00 | 0.00 | 0.00 | 94 | 1016.8 |
| 20260906171549 | 23 | 75 | 0.0 | 1.6 | 0.00 | 0.00 | 0.00 | 93 | 1017.0 |
| 20260906170044 | 24 | 84 | 0.0 | 0.0 | 0.00 | 0.03 | 0.00 | 92 | 1017.0 |
| 20260906164540 | 24 | 115 | 0.0 | 0.0 | 0.00 | 0.03 | 0.00 | 92 | 1017.1 |
| 20260906163038 | 24 | 113 | 0.0 | 1.6 | 0.00 | 0.03 | 0.00 | 92 | 1016.8 |
| 20260906161536 | 24 | 99 | 0.0 | 0.0 | 0.00 | 0.03 | 0.00 | 91 | 1016.6 |
| 20260906160039 | 25 | 145 | 0.0 | 1.6 | 0.00 | 0.03 | 0.00 | 91 | 1016.0 |
| 20260906154532 | 24 | 116 | 0.0 | 1.6 | 0.00 | 0.03 | 0.00 | 92 | 1015.8 |
| 20260906153031 | 24 | 119 | 0.0 | 8.0 | 0.00 | 0.03 | 0.00 | 93 | 1015.5 |
| 20260906151527 | 23 | 153 | 0.0 | 3.2 | 0.00 | 0.03 | 0.00 | 93 | 1015.9 |
| 20260906150028 | 23 | 138 | 0.0 | 1.6 | 0.00 | 0.03 | 0.00 | 94 | 1016.0 |
| 20260906144524 | 23 | 135 | 0.0 | 1.6 | 0.00 | 0.03 | 0.00 | 95 | 1016.2 |
| 20260906143022 | 23 | 149 | 0.0 | 8.0 | 0.00 | 0.03 | 0.00 | 94 | 1016.2 |
| 20260906141522 | 23 | 171 | 0.0 | 1.6 | 0.00 | 0.03 | 0.00 | 96 | 1016.4 |
| 20260906140017 | 22 | 143 | 0.0 | 1.6 | 0.00 | 0.03 | 0.00 | 96 | 1016.4 |
| 20260906134516 | 22 | 173 | 0.0 | 9.7 | 0.00 | 0.03 | 0.00 | 97 | 1016.4 |
| 20260906133016 | 22 | 116 | 0.0 | 0.0 | 0.00 | 0.03 | 0.00 | 98 | 1016.5 |
| 20260906131515 | 21 | 146 | 0.0 | 0.0 | 0.00 | 0.03 | 0.00 | 99 | 1016.4 |
| 20260906130014 | 21 | 146 | 0.0 | 6.4 | 0.00 | 0.03 | 0.00 | 99 | 1016.4 |
| 20260906124513 | 21 | 153 | 0.0 | 0.0 | 0.00 | 0.03 | 0.00 | 99 | 1016.4 |
| 20260906123012 | 21 | 145 | 0.0 | 3.2 | 0.00 | 0.03 | 0.00 | 99 | 1016.3 |
| 20260906121514 | 21 | 146 | 0.0 | 1.6 | 0.00 | 0.03 | 0.00 | 99 | 1016.2 |
| 20260906120009 | 21 | 155 | 0.0 | 1.6 | 0.00 | 0.03 | 0.00 | 98 | 1015.9 |
| 20260906114516 | 21 | 155 | 0.0 | 1.6 | 0.00 | 0.03 | 0.00 | 98 | 1015.8 |
| 20260906113012 | 21 | 170 | 0.0 | 0.0 | 0.00 | 0.03 | 0.00 | 98 | 1015.6 |
| 20260906111507 | 21 | 143 | 0.0 | 3.2 | 0.00 | 0.03 | 0.00 | 98 | 1015.4 |
| 20260906110005 | 21 | 139 | 0.0 | 6.4 | 0.00 | 0.03 | 0.00 | 98 | 1015.5 |
| 20260906104504 | 21 | 148 | 0.0 | 4.8 | 0.00 | 0.03 | 0.00 | 98 | 1015.7 |
| 20260906103003 | 21 | 159 | 0.0 | 4.8 | 0.00 | 0.03 | 0.00 | 98 | 1015.9 |
| 20260906101507 | 21 | 157 | 0.0 | 0.0 | 0.00 | 0.03 | 0.00 | 99 | 1015.8 |
| 20260906100002 | 21 | 153 | 0.0 | 0.0 | 0.00 | 0.03 | 0.00 | 99 | 1015.8 |
| 20260906094601 | 21 | 129 | 0.0 | 0.0 | 0.00 | 0.03 | 0.00 | 98 | 1015.7 |
| 20260906093102 | 21 | 155 | 0.0 | 0.0 | 0.00 | 0.03 | 0.00 | 99 | 1015.5 |
| 20260906091558 | 21 | 116 | 0.0 | 0.0 | 0.00 | 0.03 | 0.00 | 99 | 1015.5 |
| 20260906090058 | 21 | 111 | 0.0 | 0.0 | 0.00 | 0.03 | 0.00 | 99 | 1015.3 |
| 20260906084555 | 21 | 120 | 0.0 | 0.0 | 0.00 | 0.03 | 0.00 | 98 | 1015.3 |
| 20260906083055 | 21 | 131 | 0.0 | 0.0 | 0.00 | 0.03 | 0.00 | 98 | 1015.3 |
| 20260906081552 | 21 | 229 | 0.0 | 6.4 | 0.00 | 0.03 | 0.00 | 98 | 1015.3 |
| 20260906080059 | 21 | 131 | 0.0 | 0.0 | 0.00 | 0.03 | 0.00 | 98 | 1015.1 |
| 20260906074550 | 21 | 131 | 0.0 | 0.0 | 0.00 | 0.03 | 0.00 | 98 | 1015.2 |
| 20260906073052 | 22 | 149 | 0.0 | 1.6 | 0.00 | 0.03 | 0.00 | 98 | 1015.1 |
| 20260906071552 | 22 | 115 | 0.0 | 1.6 | 0.00 | 0.03 | 0.00 | 98 | 1015.0 |
| 20260906070049 | 22 | 136 | 0.0 | 3.2 | 0.00 | 0.03 | 0.00 | 98 | 1015.1 |
| 20260906064550 | 22 | 136 | 0.0 | 4.8 | 0.00 | 0.03 | 0.00 | 98 | 1015.3 |
| 20260906063045 | 22 | 139 | 0.0 | 4.8 | 0.00 | 0.03 | 0.00 | 98 | 1015.3 |
| 20260906061544 | 22 | 129 | 0.0 | 3.2 | 0.00 | 0.03 | 0.00 | 98 | 1015.3 |
| 20260906060042 | 22 | 134 | 0.0 | 0.0 | 0.00 | 0.03 | 0.00 | 98 | 1015.1 |
| 20260906054555 | 22 | 148 | 0.0 | 3.2 | 0.00 | 0.03 | 0.00 | 98 | 1015.2 |
| 20260906053040 | 22 | 142 | 0.0 | 6.4 | 0.00 | 0.03 | 0.00 | 98 | 1015.3 |
| 20260906051601 | 22 | 123 | 0.0 | 0.0 | 0.00 | 0.03 | 0.00 | 98 | 1015.3 |
| 20260906050037 | 22 | 120 | 0.0 | 3.2 | 0.00 | 0.03 | 0.03 | 98 | 1015.1 |
| 20260906044536 | 22 | 124 | 0.0 | 1.6 | 0.00 | 0.03 | 0.03 | 98 | 1015.1 |
| 20260906043034 | 23 | 104 | 0.0 | 1.6 | 0.00 | 0.03 | 0.03 | 97 | 1015.1 |
| 20260906041533 | 23 | 115 | 0.0 | 3.2 | 0.00 | 0.03 | 0.03 | 97 | 1015.3 |
| 20260906040058 | 23 | 125 | 0.0 | 3.2 | 0.00 | 0.03 | 0.03 | 97 | 1015.0 |
| 20260906034531 | 23 | 120 | 0.0 | 6.4 | 0.00 | 0.03 | 0.03 | 97 | 1015.0 |
| 20260906033044 | 23 | 103 | 0.0 | 3.2 | 0.00 | 0.03 | 0.03 | 97 | 1015.0 |
| 20260906031531 | 23 | 139 | 0.0 | 0.0 | 0.00 | 0.03 | 0.03 | 97 | 1015.1 |
| 20260906030030 | 23 | 137 | 0.0 | 0.0 | 0.00 | 0.03 | 0.03 | 97 | 1015.1 |
| 20260906024530 | 23 | 110 | 0.0 | 0.0 | 0.00 | 0.03 | 0.03 | 96 | 1015.1 |
| 20260906023028 | 24 | 110 | 0.0 | 0.0 | 0.00 | 0.03 | 0.03 | 96 | 1014.8 |
| 20260906021529 | 24 | 328 | 0.0 | 0.0 | 0.00 | 0.03 | 0.03 | 96 | 1014.7 |
| 20260906020028 | 24 | 96 | 0.0 | 0.0 | 0.00 | 0.03 | 0.03 | 95 | 1014.4 |
| 20260906014529 | 24 | 96 | 0.0 | 0.0 | 0.00 | 0.03 | 0.03 | 94 | 1014.1 |
| 20260906013029 | 25 | 96 | 0.0 | 0.0 | 0.00 | 0.03 | 0.03 | 93 | 1014.0 |
| 20260906011526 | 25 | 95 | 0.0 | 0.0 | 0.00 | 0.03 | 0.03 | 92 | 1013.7 |
| 20260906010025 | 26 | 109 | 0.0 | 0.0 | 0.00 | 0.03 | 0.03 | 92 | 1013.6 |
| 20260906004527 | 26 | 112 | 0.0 | 0.0 | 0.00 | 0.03 | 0.03 | 90 | 1013.6 |
| 20260906003024 | 27 | 139 | 0.0 | 0.0 | 0.00 | 0.03 | 0.03 | 87 | 1013.5 |
| 20260906001525 | 28 | 128 | 0.0 | 0.0 | 0.00 | 0.03 | 0.03 | 86 | 1013.6 |
| 20260906000023 | 28 | 114 | 0.0 | 0.0 | 0.00 | 0.03 | 0.03 | 85 | 1013.6 |
| 20260905234521 | 28 | 115 | 0.0 | 0.0 | 0.00 | 0.03 | 0.03 | 84 | 1013.6 |
| 20260905233020 | 28 | 127 | 0.0 | 0.0 | 0.00 | 0.03 | 0.03 | 84 | 1013.6 |
| 20260905231521 | 28 | 129 | 0.0 | 1.6 | 0.00 | 0.03 | 0.03 | 83 | 1013.6 |
| 20260905230018 | 27 | 148 | 0.0 | 1.6 | 0.00 | 0.03 | 0.03 | 82 | 1013.6 |
| 20260905224540 | 28 | 130 | 0.0 | 1.6 | 0.00 | 0.03 | 0.03 | 81 | 1013.2 |
| 20260905223021 | 28 | 153 | 0.0 | 0.0 | 0.00 | 0.03 | 0.03 | 81 | 1013.2 |
| 20260905221517 | 28 | 120 | 0.0 | 0.0 | 0.00 | 0.03 | 0.03 | 79 | 1013.2 |
| 20260905220013 | 27 | 132 | 0.0 | 1.6 | 0.00 | 0.03 | 0.03 | 82 | 1013.1 |
| 20260905214511 | 27 | 140 | 0.0 | 1.6 | 0.00 | 0.03 | 0.03 | 80 | 1013.2 |
| 20260905213011 | 27 | 129 | 0.0 | 1.6 | 0.00 | 0.03 | 0.03 | 80 | 1013.1 |
| 20260905211533 | 27 | 131 | 0.0 | 1.6 | 0.00 | 0.03 | 0.03 | 77 | 1013.2 |
| 20260905210017 | 27 | 121 | 0.0 | 1.6 | 0.00 | 0.03 | 0.03 | 75 | 1013.1 |
| 20260905204508 | 27 | 179 | 0.0 | 1.6 | 0.00 | 0.03 | 0.03 | 74 | 1013.1 |
| 20260905203006 | 27 | 164 | 0.0 | 1.6 | 0.00 | 0.03 | 0.03 | 77 | 1013.2 |
| 20260905201504 | 27 | 158 | 0.0 | 1.6 | 0.00 | 0.03 | 0.03 | 79 | 1013.0 |
| 20260905200104 | 26 | 148 | 0.0 | 1.6 | 0.00 | 0.03 | 0.03 | 81 | 1013.4 |
| 20260905194559 | 26 | 173 | 0.0 | 1.6 | 0.00 | 0.03 | 0.03 | 79 | 1013.6 |
| 20260905193057 | 26 | 158 | 0.0 | 3.2 | 0.00 | 0.03 | 0.03 | 80 | 1013.9 |
| 20260905191602 | 25 | 197 | 0.0 | 1.6 | 0.00 | 0.03 | 0.03 | 79 | 1013.9 |
| 20260905190054 | 25 | 155 | 0.0 | 1.6 | 0.00 | 0.03 | 0.03 | 82 | 1014.1 |
| 20260905184559 | 25 | 100 | 0.0 | 0.0 | 0.00 | 0.03 | 0.03 | 82 | 1014.2 |
| 20260905183050 | 25 | 121 | 0.0 | 0.0 | 0.00 | 0.03 | 0.03 | 83 | 1014.1 |
| 20260905181549 | 24 | 19 | 0.0 | 0.0 | 0.00 | 0.03 | 0.03 | 85 | 1013.7 |